Flag for Canada Weather past 2 weeks in Aklavik, Northwest Territories, Canada

Now
39 °F

Light rain. Mostly cloudy.


Feels Like: 32 °F
Forecast: 39 / 45 °F
Wind: 12 mph from North

Location: Inuvik

Current Time: Aug 27, 2015 at 11:15:20 PM

Latest Report: Aug 27, 2015 at 10:01 PM


Visibility: 10 mi

Pressure: 29.67 "Hg

Humidity: 87%

Dew point: 36 °F

Location of AklavikLocation

Historic Weather in Aklavik — Graph

°F

Aklavik temperature yesterday

Maximum temperature yesterday: 66 °F (at 4:00 PM)
Minimum temperature yesterday: 52 °F (at 6:51 AM)
Average temperature yesterday: 58 °F

Past Weeks' High & Low Weather Summary

 TemperatureHumidityPressure
High66 °F (Aug 26, 4:00 PM)100% (Aug 16, 7:00 AM)30.13 "Hg (Aug 16, 7:00 AM)
Low39 °F (Aug 17, 2:00 AM)37% (Aug 22, 7:00 PM)29.34 "Hg (Aug 27, 7:00 AM)
Average50 °F80%29.95 "Hg
* Reported Aug 12 10:00 PM — Aug 27 10:01 PM, Aklavik, Weather by CustomWeather, © 2015

Note: Actual official high and low records may vary slightly from our data, if they occured in-between our weather recording intervals... More about our weather records

Advertising

Aklavik weather history for previous 24 hours

 ConditionsComfort  
Time TempWeatherWind HumidityBarometerVisibility
10:01 PM
Thu, Aug 27
39 °FLight rain. Mostly cloudy.12 mph87%29.67 "Hg10 mi
9:00 PM39 °FLight rain. Fog.12 mph87%29.64 "Hg8 mi
8:00 PM41 °FLight rain. Fog.9 mph87%29.62 "Hg8 mi
7:00 PM41 °FLight rain. Fog.12 mph93%29.59 "Hg5 mi
6:00 PM41 °FLight rain. Fog.14 mph93%29.58 "Hg4 mi
5:00 PM41 °FLight rain. Fog.10 mph93%29.55 "Hg8 mi
4:00 PM41 °FLight rain. More clouds than sun.16 mph93%29.53 "Hg10 mi
3:00 PM41 °FLight rain. More clouds than sun.17 mph100%29.50 "Hg10 mi
2:45 PM43 °FLight rain. Fog.18 mph87%29.49 "Hg6 mi
2:00 PM43 °FLight rain. Fog.15 mph93%29.47 "Hg4 mi
1:00 PM45 °FDrizzle. Fog.15 mph93%29.45 "Hg6 mi
12:00 PM45 °FDrizzle. Fog.15 mph100%29.41 "Hg6 mi
11:00 AM46 °FDrizzle. Fog.20 mph100%29.39 "Hg2 mi
10:03 AM46 °FDrizzle. Fog.16 mph93%29.38 "Hg3 mi
9:00 AM46 °FDrizzle. Fog.15 mph100%29.37 "Hg15 mi
8:00 AM50 °FMostly cloudy.12 mph94%29.35 "Hg15 mi
7:00 AM50 °FPartly cloudy.5 mph94%29.34 "Hg15 mi
6:00 AM52 °FPassing clouds.6 mph94%29.34 "Hg15 mi
5:00 AM52 °FMostly cloudy.6 mph94%29.35 "Hg15 mi
4:00 AM54 °FMostly cloudy.8 mph88%29.35 "Hg15 mi
3:00 AM54 °FMostly cloudy.3 mph94%29.36 "Hg15 mi
2:00 AM55 °FOvercast.No wind94%29.36 "Hg15 mi
1:00 AM55 °FLight rain. Mostly cloudy.No wind94%29.38 "Hg15 mi
12:00 AM55 °FLight rain. Overcast.5 mph94%29.40 "Hg15 mi
11:00 PM
Wed, Aug 26
55 °FSprinkles. Overcast.2 mph94%29.42 "Hg15 mi
Weather by CustomWeather, © 2015

See weather overviewHow to use our weather pages